Probability
0 0 0 0 0 0 0 0 0 0 3 8 12 17 24 29 23 11 2 0 0 0 0 0 0 0 0 0 0 0 0 0 0 0 0 0 0 0 0 0 0 0 0 0
0 0 0 0 0 0 0 0 0 4 12 23 31 35 38 42 37 22 6 0 0 0 0 0 0 0 0 0 0 0 0 0 0 0 0 0 0 0 0 0 0 0 0 0
0 0 0 0 0 0 0 0 2 8 19 31 39 41 42 48 48 34 12 1 0 0 0 0 0 0 0 0 0 0 0 0 0 0 0 0 0 0 0 0 0 0 0 0
0 0 0 0 0 0 0 1 3 9 13 16 19 21 21 28 34 27 11 2 0 0 0 0 0 0 0 0 0 0 0 0 0 0 0 0 0 0 0 0 0 0 0 0
0 0 0 0 0 0 0 1 2 4 4 2 2 2 2 6 9 8 4 1 0 0 0 0 0 0 0 0 0 0 0 0 0 0 0 0 0 0 0 0 0 0 0 0
0 0 0 0 0 0 0 0 1 1 1 0 0 0 0 0 0 0 0 0 0 0 0 0 0 0 0 0 0 0 0 0 0 0 0 0 0 0 0 0 0 0 0 0
0 0 0 0 0 0 0 0 0 0 0 0 0 0 0 0 0 0 0 0 0 0 0 0 0 0 0 0 0 0 0 0 0 0 0 0 0 0 0 0 0 0 0 0
0 0 0 0 0 0 0 0 0 0 0 1 0 0 0 0 0 0 0 0 0 0 0 0 0 0 0 0 0 0 0 0 0 0 0 0 0 0 0 0 0 0 0 0
0 0 0 0 0 0 0 0 0 0 0 0 0 0 0 0 0 0 0 0 0 0 0 0 0 0 0 0 0 0 0 0 0 0 0 0 0 0 0 0 0 0 0 0
0 0 0 0 0 0 0 0 0 0 0 0 0 0 0 0 0 0 0 0 0 0 0 0 0 0 0 0 0 0 0 0 0 0 0 0 0 0 0 0 0 0 0 0
0 0 0 0 0 0 0 0 0 0 0 0 0 0 0 0 0 0 0 0 0 0 0 0 0 0 0 0 0 0 0 0 0 0 0 0 0 0 0 0 0 0 0 0
0 0 0 0 0 0 0 0 0 0 0 0 0 0 0 0 0 0 0 0 0 0 0 0 0 0 0 0 0 0 0 0 0 0 0 0 0 0 0 0 0 0 0 0
0 0 0 0 0 0 0 0 0 0 0 0 0 0 0 0 0 0 0 0 0 0 0 0 0 0 0 0 0 0 0 0 0 0 0 0 0 0 0 0 0 0 0 0
0 0 0 0 0 0 0 0 0 0 0 0 0 0 0 0 0 0 0 0 0 0 0 0 0 0 0 0 0 0 0 0 0 0 0 0 0 0 0 0 0 0 0 0
0 0 0 0 0 0 0 0 0 0 0 0 0 0 0 0 0 0 0 0 0 0 0 0 0 0 0 0 0 0 0 0 0 0 0 0 0 0 0 0 0 0 0 0
0 0 0 0 0 0 0 0 0 0 0 0 0 0 0 0 0 0 0 0 0 0 0 0 0 0 0 0 0 0 0 0 0 0 0 0 0 0 0 0 0 0 0 0
0 0 0 0 0 0 0 0 0 0 0 0 0 0 0 0 0 0 0 0 0 0 0 0 0 0 0 0 0 0 0 0 0 0 0 0 0 0 0 0 0 0 0 0
0 0 0 0 0 0 0 0 0 0 0 0 0 0 0 0 0 0 0 0 0 0 0 0 0 0 0 0 0 0 0 0 0 0 0 0 0 0 0 0 0 0 0 0
0 0 0 0 0 0 0 0 0 0 0 0 0 0 0 0 0 0 0 0 0 0 0 0 0 0 0 0 0 0 0 0 0 0 0 0 0 0 0 0 0 0 0 0
0 0 0 0 0 0 0 0 0 0 0 0 0 0 0 0 0 0 0 0 0 0 0 0 0 0 0 0 0 0 0 0 0 0 0 0 0 0 0 0 0 0 0 0
0 0 0 0 0 0 0 0 0 0 0 0 0 0 0 0 0 0 0 0 0 0 0 0 0 0 0 0 0 0 0 0 0 0 0 0 0 0 0 0 0 0 0 0
0 0 0 0 0 0 0 0 0 0 0 0 0 0 0 0 0 0 0 0 0 0 0 0 0 0 0 0 0 0 0 0 0 0 0 0 0 0 0 0 0 0 0 0
0 0 0 0 0 0 0 0 0 0 0 0 0 0 0 0 0 0 0 0 0 0 0 0 0 0 0 0 0 0 0 0 0 0 0 0 0 0 0 0 0 0 0 0
0 0 0 0 0 0 0 0 0 0 0 0 0 0 0 0 0 0 0 0 0 0 0 0 0 0 0 0 0 0 0 0 0 0 0 0 0 0 0 0 0 0 0 0
0 0 0 0 0 0 0 0 0 0 0 0 0 0 0 0 0 0 0 0 0 0 0 0 0 0 0 0 0 0 0 0 0 0 0 0 0 0 0 0 0 0 0 0
0 0 0 0 0 0 0 0 0 0 0 0 0 0 0 0 0 0 0 0 0 0 0 0 0 0 0 0 0 0 0 0 0 0 0 0 0 0 0 0 0 0 0 0
0 0 0 0 0 0 0 0 0 0 0 0 0 0 0 0 0 0 0 0 0 0 0 0 0 0 0 0 0 0 0 0 0 0 0 0 0 0 0 0 0 0 0 0
Wind_Speed
17 20 18 14 8 5 10 13 12 10 7 7 5 5 5 9 11 12 13 14 14 13 12 11 11 10 10 9 7 6 4 2 0 1 2 2 3 3 4 5 6 6 6 6
16 18 19 18 15 12 12 14 14 12 7 10 9 8 7 5 10 13 13 14 14 14 13 12 11 11 10 8 6 5 5 3 1 1 2 2 2 3 4 5 6 6 7 7
14 16 16 18 16 15 12 9 9 7 12 13 14 15 15 12 5 10 14 15 15 13 13 12 11 10 9 7 5 4 4 4 3 2 2 3 4 5 5 5 6 6 6 5
11 13 16 13 8 4 4 10 12 11 12 12 11 13 16 15 11 9 13 15 14 14 13 12 10 9 7 4 3 2 1 2 2 1 3 3 3 4 5 5 5 5 5 5
9 13 14 11 7 5 2 9 12 11 10 9 6 8 14 15 14 13 14 14 14 13 13 11 8 6 4 2 2 2 1 0 1 2 2 3 5 5 5 5 4 4 5 6
11 12 11 4 7 6 4 5 10 9 9 8 7 2 6 10 13 14 15 14 13 12 11 9 6 4 3 3 3 2 2 1 1 2 3 3 5 5 4 4 4 5 6 6
12 13 7 7 5 7 5 4 7 7 7 6 7 8 10 11 12 13 14 14 12 11 8 6 5 4 4 5 4 3 3 3 3 3 3 6 5 4 4 4 5 5 6 6
8 10 2 9 6 7 6 5 5 7 6 9 13 13 12 12 13 13 13 12 10 8 7 6 7 6 5 4 3 3 3 4 4 5 6 6 5 4 4 5 5 5 6 7
2 1 3 4 4 5 5 6 7 7 6 12 14 13 13 12 12 11 11 9 7 8 8 7 7 5 4 3 4 4 4 4 4 6 6 5 5 5 5 5 5 6 6 7
6 2 1 3 5 6 8 8 7 5 6 14 15 15 14 12 10 9 8 8 8 8 7 6 6 5 4 5 5 5 3 2 4 5 5 5 4 5 5 6 6 6 6 7
10 10 9 6 9 9 7 6 5 6 11 15 17 16 15 12 10 9 9 9 8 7 7 8 7 6 6 6 4 2 1 2 4 6 5 4 5 5 5 5 4 4 5 5
7 8 7 8 9 8 5 4 7 12 15 15 15 16 14 11 10 9 8 7 7 8 8 8 8 7 6 5 5 5 4 4 5 5 4 4 3 3 2 2 4 2 2 3
7 8 7 6 6 3 5 9 12 15 16 15 13 12 12 10 9 9 9 8 8 9 9 8 8 8 7 6 5 5 5 5 4 4 4 3 3 2 1 3 6 5 2 3
6 4 4 6 6 9 13 15 15 15 14 13 11 10 11 11 10 9 8 8 9 9 9 9 8 8 7 6 6 5 5 4 3 3 3 3 2 2 3 3 3 2 1 3
10 10 10 11 12 12 12 13 13 12 11 11 11 12 11 9 8 8 8 9 9 9 10 9 8 7 7 7 6 7 6 4 3 2 2 2 2 3 3 4 4 4 5 5
12 13 13 14 14 12 12 12 13 13 12 13 12 10 9 8 8 8 8 9 9 10 9 8 7 6 5 4 5 4 3 1 3 3 3 3 3 3 4 4 4 3 4 6
11 11 12 12 12 12 11 11 12 12 12 12 11 11 10 9 9 10 10 11 10 9 7 6 5 5 5 5 2 2 2 2 1 3 6 6 5 5 4 4 4 4 4 5
9 10 11 11 11 11 11 11 12 12 12 12 12 10 9 9 10 10 10 10 9 9 8 8 7 7 7 7 6 5 4 4 4 5 5 5 6 6 6 6 6 6 5 5
10 11 12 12 12 12 13 13 13 12 11 10 10 9 9 10 10 10 9 9 10 9 8 6 3 4 4 4 6 3 4 5 5 6 6 5 6 7 7 7 7 7 6 6
11 12 12 13 14 14 13 13 12 11 10 9 10 10 10 10 9 9 9 9 8 7 6 3 3 4 4 6 8 4 7 8 8 7 7 7 7 7 7 7 7 7 7 6
12 13 14 14 14 14 13 13 11 11 10 11 11 11 10 9 9 9 9 8 7 5 4 2 3 6 7 9 7 7 8 7 7 7 7 7 7 7 7 7 7 7 7 6
12 13 15 15 14 13 11 11 11 12 11 11 12 10 9 8 9 9 9 6 6 2 2 7 7 8 11 11 6 8 8 8 7 6 6 6 6 6 6 7 7 7 6 6
11 13 14 14 13 12 11 11 11 11 12 12 10 8 7 7 7 8 7 6 7 7 7 7 6 10 15 7 8 9 9 8 8 7 7 7 7 7 7 7 6 6 6 7
11 12 12 12 12 11 11 11 11 10 11 11 9 8 6 6 8 9 9 10 9 8 7 3 6 9 10 4 9 9 9 8 8 8 8 8 8 7 7 7 7 7 7 9
11 12 12 12 11 9 10 10 10 11 11 9 9 8 6 7 9 9 9 10 8 7 6 2 4 8 3 7 8 8 8 7 8 8 8 8 8 8 8 8 8 8 8 8
11 10 10 8 7 7 9 9 8 8 8 9 8 7 8 9 11 9 8 9 8 6 5 3 3 3 6 8 8 8 7 6 7 8 9 8 9 9 8 8 10 8 8 8
11 9 7 8 9 8 7 7 7 8 9 8 8 8 9 9 9 9 9 8 7 6 4 5 6 7 7 7 8 7 7 7 7 7 7 8 8 8 8 10 9 8 8 9
Wind_Direction
272 279 279 277 280 305 317 309 297 302 343 46 49 42 66 115 134 131 131 133 132 128 122 111 99 89 82 69 52 34 12 360 69 129 103 70 50 34 30 17 6 8 357 359
278 272 273 272 267 250 239 257 274 292 39 61 53 45 38 100 139 141 141 135 127 121 114 106 100 94 83 68 40 7 342 324 5 38 58 56 42 58 44 25 11 9 6 8
274 279 281 270 275 284 286 311 339 15 52 47 47 42 37 32 81 144 140 132 125 117 111 105 99 93 83 64 32 8 355 355 357 352 42 44 31 43 33 25 20 13 8 8
282 279 267 273 293 335 357 36 38 48 53 50 49 57 48 37 46 91 117 117 113 111 106 101 96 89 83 69 38 13 324 303 312 26 64 45 48 40 34 34 24 0 355 359
277 272 268 277 358 347 320 71 40 37 33 32 28 93 60 49 60 81 97 103 105 107 107 105 104 107 112 131 178 199 205 224 45 42 39 37 48 41 40 20 7 352 359 348
257 266 271 34 32 7 317 107 41 33 22 12 349 356 73 72 84 92 98 105 109 111 112 115 124 138 148 160 163 163 162 145 95 45 15 36 56 42 25 358 3 358 355 342
247 254 259 45 336 304 294 69 25 16 13 18 45 75 101 98 98 104 109 113 117 121 124 135 155 167 171 166 173 189 182 145 88 36 13 60 52 40 22 11 12 0 349 339
262 260 235 32 8 30 38 25 14 12 29 89 102 104 107 110 112 115 118 123 129 134 145 169 185 182 170 167 174 160 127 97 73 56 36 42 38 41 39 17 7 5 352 348
340 28 71 41 22 22 6 358 8 12 60 117 119 118 117 118 121 125 129 137 152 161 167 179 183 180 155 143 132 109 86 76 77 80 74 50 39 38 36 24 15 10 3 357
300 236 316 346 7 15 16 12 6 8 113 127 126 125 124 125 129 136 148 165 177 171 157 147 143 133 115 98 88 83 76 80 105 96 89 74 49 38 40 26 18 11 4 353
284 297 315 355 17 9 6 8 26 75 114 125 128 127 128 132 145 159 172 178 170 150 131 120 116 111 101 92 90 99 92 87 98 86 76 76 71 47 44 63 44 12 1 346
307 343 333 328 338 342 356 47 97 108 111 118 125 129 136 150 165 169 164 152 137 125 117 111 107 101 93 82 59 34 44 57 76 78 67 62 86 115 99 102 166 207 265 312
323 330 333 338 347 20 92 104 111 117 122 125 132 143 149 150 147 136 126 121 121 120 116 111 105 96 84 73 73 70 59 44 56 63 69 61 46 37 76 177 204 215 234 348
10 5 36 44 66 90 103 108 113 118 127 136 146 144 132 124 123 123 124 125 125 121 116 108 99 92 85 71 56 57 85 82 68 84 77 66 62 51 41 34 35 25 195 27
60 72 88 91 92 97 106 114 119 125 132 129 121 117 118 121 123 127 128 128 125 118 108 102 97 91 86 82 69 49 44 43 18 50 82 75 70 70 57 44 29 15 8 20
102 100 101 101 103 107 113 118 120 122 122 121 122 124 126 126 124 121 119 117 108 98 96 98 102 102 102 118 132 127 107 44 329 10 42 44 55 67 65 57 42 25 22 17
123 122 124 124 128 130 132 132 128 129 127 126 127 128 125 119 108 98 94 93 94 97 98 95 85 78 66 49 44 81 82 112 226 31 40 21 21 41 60 61 50 42 54 47
134 139 143 145 142 140 138 132 126 122 122 127 129 126 119 110 104 101 103 106 104 93 80 70 52 46 52 37 3 5 23 35 39 44 61 36 17 31 40 50 51 47 62 77
132 134 139 143 140 134 127 123 122 123 128 130 126 117 110 108 109 114 119 116 105 92 85 83 33 56 62 49 328 326 29 40 42 41 42 54 41 38 41 44 45 43 49 58
126 126 128 128 124 122 123 124 124 125 125 122 119 115 113 115 116 109 96 86 85 97 108 91 87 66 45 28 331 19 49 41 39 35 37 38 41 41 39 43 46 44 47 56
129 128 126 122 123 123 125 127 129 130 129 126 121 117 115 116 118 116 107 99 95 91 112 129 45 48 35 347 326 41 49 46 45 41 38 40 42 44 43 44 45 46 47 48
132 126 123 123 125 127 131 136 137 133 128 125 125 126 129 128 114 98 91 98 100 51 54 78 64 32 359 332 31 51 45 44 47 46 45 50 48 46 47 50 48 47 46 46
130 128 128 130 132 137 141 140 135 131 130 130 132 134 131 125 123 118 109 94 84 73 70 67 28 0 339 344 48 51 48 43 41 42 43 50 55 52 47 50 52 50 46 43
134 134 134 135 141 144 142 138 134 137 139 139 140 139 139 130 109 100 101 89 81 85 84 63 343 336 320 47 55 49 43 36 37 45 41 44 51 50 50 47 49 47 47 49
143 138 137 141 143 142 140 142 143 147 145 137 140 152 136 111 113 111 108 111 126 116 119 153 282 301 333 67 73 72 63 48 35 37 47 47 47 48 47 51 51 49 45 48
147 146 144 146 139 144 150 155 155 150 142 145 148 133 112 109 114 121 131 134 131 151 161 163 126 118 78 71 63 58 61 63 59 53 46 45 49 51 47 43 52 57 54 46
151 145 149 151 155 160 160 160 154 151 149 144 132 129 132 136 136 137 136 144 168 186 152 108 87 80 77 74 70 67 62 57 51 49 50 51 51 51 53 51 45 47 59 59